Regional Weather Roundup
Issued by NWS

Home | Current Version | Previous Version | Text Only | Print | Product List | Glossary On
Versions: 1 2 3 4 5 6 7 8 9 10 11 12 13 14 15 16 17 18 19 20 21 22 23 24 25 26 27 28 29 30 31 32 33 34 35 36 37 38 39 40 41 42 43 44 45 46 47 48 49 50
000
ASUS43 KFSD 270002
RWRSD

WEATHER ROUNDUP FOR SOUTH DAKOTA
NATIONAL WEATHER SERVICE SIOUX FALLS SD
700 PM CDT THU MAR 26 2015

NOTE: "FAIR" INDICATES FEW OR NO CLOUDS BELOW 12,000 FEET WITH NO
SIGNIFICANT WEATHER AND/OR OBSTRUCTIONS TO VISIBILITY.


SDZ001>005-009-010-012>017-270100-
NORTHWEST AND NORTH CENTRAL SOUTH DAKOTA

CITY           SKY/WX    TMP DP  RH WIND       PRES   REMARKS
BUFFALO          N/A     44  31  60 E12       30.07R
FAITH            N/A     38  27  64 E8        30.17R
MOBRIDGE       CLOUDY    40  21  46 N6        30.18S
$$

SDZ012>016-024>037-041>051-057-063-072>074-270100-
SOUTHWEST AND SOUTH CENTRAL SOUTH DAKOTA

CITY           SKY/WX    TMP DP  RH WIND       PRES   REMARKS
RAPID CTY ARPT MOSUNNY   46  28  49 NE12      30.12S
PIERRE         CLOUDY    36  31  82 W6        30.21R
CUSTER         CLOUDY    43  27  53 VRB6      30.09S
ELLSWORTH AFB  PTSUNNY   46  29  50 NE9       30.11S
PHILIP         CLOUDY    38  27  64 SE6       30.19S
PINE RIDGE     CLOUDY    47  27  45 NE9       30.13R
SPEARFISH      FAIR      45  28  53 NW12      30.11F
WINNER         CLOUDY    36  29  75 N8        30.21R
$$

SDZ004>011-016>023-039-040-270100-
NORTHEAST SOUTH DAKOTA

CITY           SKY/WX    TMP DP  RH WIND       PRES   REMARKS
ABERDEEN       CLEAR     36  13  38 N17       30.24R
WATERTOWN      MOCLDY    31  14  49 N16       30.19R WCI  20
SISSETON         N/A     32  13  45 N18       30.22R WCI  20
$$

SDZ017-020-022-023-036>040-048>070-270100-
SOUTHEAST SOUTH DAKOTA

CITY           SKY/WX    TMP DP  RH WIND       PRES   REMARKS
SIOUX FALLS    MOCLDY    38  19  46 N18       30.15R
HURON          PTCLDY    36  17  46 N12       30.21R
MITCHELL       PTCLDY    38  20  48 N13       30.20R
YANKTON        CLOUDY    37  25  60 N14       30.18S
$$

ABBREVIATIONS USED IN REMARKS
   TC - TEMPERATURE IN CELSIUS
  WCI - WIND CHILL INDEX
   HX - HEAT INDEX
  VSB - VISIBILITY




USA.gov is the U.S. government's official web portal to all federal, state and local government web resources and services.